Regional Weather Roundup
Issued by NWS Green Bay, WI

Home | Current Version | Previous Version | Text Only | Print | Product List | Glossary On
Versions: 1 2 3 4 5 6 7 8 9 10 11 12 13 14 15 16 17 18 19 20 21 22 23 24 25 26 27 28 29 30 31 32 33 34 35 36 37 38 39 40 41 42 43 44 45 46 47 48 49 50
000
ASUS43 KGRB 280211
RWRGRB

NORTH-CENTRAL AND NORTHEAST WISCONSIN REGIONAL WEATHER ROUNDUP
NATIONAL WEATHER SERVICE GREEN BAY WI
900 PM CDT FRI MAY 27 2016

WIZ005-009-010>012-018-019-280300-
NORTH CENTRAL WISCONSIN

CITY           SKY/WX    TMP DP  RH WIND       PRES   REMARKS
IRONWOOD       CLOUDY    57  57 100 NE5       29.78F
MANITOWISH WTR NOT AVBL
ARBOR VITAE    CLOUDY    67  62  83 SE9       29.81S
EAGLE RIVER      N/A     65  61  87 SE7       29.83R
LAND O LAKES   CLOUDY    66  62  87 SE10      29.84R
RHINELANDER    LGT RAIN  65  62  90 SE6       29.83S
PHILLIPS       CLOUDY    66  62  86 E8        29.77S
ANTIGO         LGT RAIN  64  64 100 SE9       29.83F
TOMAHAWK       CLOUDY    64  62  94 SE6       29.81S
MERRILL        HVY RAIN  65  65 100 E7        29.81F
$$

WIZ013-073-280300-
NORTHEAST WISCONSIN

CITY           SKY/WX    TMP DP  RH WIND       PRES   REMARKS
IRON MOUNTAIN  LGT RAIN  64  63  96 SE7       29.84S FOG
MARINETTE      LGT RAIN  58  58 100 SE8       29.87F FOG
OCONTO         CLOUDY   N/A N/A N/A E6        29.84F
$$

WIZ017-030-035>037-045-280300-
CENTRAL WISCONSIN

CITY           SKY/WX    TMP DP  RH WIND       PRES   REMARKS
MEDFORD        CLOUDY    65  65 100 E10G18    29.77F
WAUSAU         CLOUDY    66  64  93 E10       29.76F FOG
MOSINEE        CLOUDY    66  66 100 E12       29.78F FOG
MARSHFIELD     CLOUDY    69  65  86 E8        29.76S
WISC RAPIDS    MOCLDY    68  65  90 SE8       29.77F
STEVENS POINT  CLOUDY    65  65  99 E8        29.78F FOG
WAUPACA        CLOUDY    69  69  99 SE8       29.79S FOG
SHAWANO        LGT RAIN  68  65  92 E6        29.82F
CLINTONVILLE   RAIN      66  64  94 SE8       29.80F
WAUTOMA        CLOUDY    67  66  97 E5        29.79R
$$

WIZ038-039-048-051-280300-
FOX VALLEY

CITY           SKY/WX    TMP DP  RH WIND       PRES   REMARKS
NWS GREEN BAY  CLOUDY    67  65  93 SE9       29.83R FOG
APPLETON       DRIZZLE   66  66 100 SE8       29.80S FOG
OSHKOSH        CLOUDY    67  66  97 SE8       29.80S
FOND DU LAC    CLOUDY    69  67  93 SE9       29.81R
$$

WIZ022-050-052-280300-
EAST CENTRAL WISCONSIN

CITY           SKY/WX    TMP DP  RH WIND       PRES   REMARKS
EPHRAIM        LGT RAIN  58  58 100 SE6       29.87S VSB 3/4
STURGEON BAY   NOT AVBL
MANITOWOC      CLOUDY    59  57  93 SE5       29.85S FOG
SHEBOYGAN      LGT RAIN  63  61  93 S9        29.84S FOG
$$

LMZ563-521-522-541>543-280300-
LAKESHORE

STATION/POSITION TIME  TEMP    WIND        PRES    VSBY  WAVE
                       AIR SEA DIR/SP/G                  HT/PER
                 (UTC) (F)     (DEG/KT/KT) (MB)    (MI)  (FT/S)
SHEBOYGAN LKSHOR 0200   58     180/ 14/ 14 1010.8R
KEWAUNEE LKSHORE 0100           30/  5/  7 1010.6S
ALGOMA MARINA    0117           70/  9/ 10   N/A
NORTHPORT PIER   0100   54     120/  5/  7 1011.9S
N MID LAKE BUOY  0150   51 47  140/  6/  8 1012.0R         0
SISTER BAY LKSHO 0120   57     110/  9/ 14   N/A
CHAMBERS ISLAND  0100   60      90/  6/ 11 1011.5S
MENOMINEE LKSHOR 0100           90/  8/ 10 1010.3R
$$




USA.gov is the U.S. government's official web portal to all federal, state and local government web resources and services.